This is the latest recevied weather packets stored in our database for station/object N6OL. If no packets are shown the sender has not sent any weather packets the latest 10 day(s).
| Time | Temp. | Humidity | Pressure | Rain* | Wind** | Luminosity | Snow |
|---|---|---|---|---|---|---|---|
| 1777974624 | 11.67° C | 89% | 1014.5 hPa | 0.76 mm | - | 0 W/m² | - |
| 1777974303 | 11.67° C | 89% | 1014.6 hPa | 1.02 mm | - | 0 W/m² | - |
| 1777971616 | 11.67° C | 88% | 1015.1 hPa | 1.02 mm | - | 0 W/m² | - |
| 1777971303 | 11.67° C | 87% | 1015.1 hPa | 1.02 mm | - | 0 W/m² | - |
| 1777968903 | 11.67° C | 86% | 1015.2 hPa | 0.76 mm | - | 0 W/m² | - |
| 1777968324 | 11.67° C | 85% | 1015.2 hPa | 0.76 mm | - | 0 W/m² | - |
| 1777967703 | 11.67° C | 84% | 1015.4 hPa | 0.51 mm | - | 0 W/m² | - |
| 1777966824 | 11.67° C | 83% | 1015.4 hPa | 0.25 mm | - | 0 W/m² | - |
| 1777965903 | 12.22° C | 82% | 1015.4 hPa | 0.25 mm | - | 0 W/m² | - |
| 1777964124 | 12.22° C | 81% | 1015.4 hPa | 0 mm | - | 0 W/m² | - |
| 1777961703 | 12.22° C | 80% | 1014.8 hPa | 0 mm | - | 0 W/m² | - |
| 1777959624 | 12.78° C | 76% | 1014.9 hPa | 0 mm | - | 0 W/m² | - |
| 1777957224 | 12.78° C | 76% | 1015.5 hPa | 0 mm | - | 0 W/m² | - |
| 1777956603 | 13.33° C | 76% | 1015.6 hPa | 0 mm | - | 0 W/m² | - |
| 1777955703 | 13.33° C | 77% | 1015.6 hPa | 0 mm | - | 0 W/m² | - |
| 1777954824 | 13.33° C | 77% | 1015.1 hPa | 0 mm | - | 0 W/m² | - |
| 1777953903 | 13.33° C | 78% | 1014.8 hPa | 0 mm | - | 0 W/m² | - |
| 1777952124 | 13.89° C | 80% | 1014.5 hPa | 0 mm | - | 0 W/m² | - |
| 1777949724 | 13.89° C | 77% | 1014.2 hPa | 0 mm | - | 0 W/m² | - |
| 1777948503 | 14.44° C | 76% | 1014.3 hPa | 0 mm | - | 11 W/m² | - |
| 1777945203 | 15° C | 70% | 1014.3 hPa | 0 mm | - | 84 W/m² | - |
| 1777944303 | 15.56° C | 68% | 1014.3 hPa | 0 mm | - | 93 W/m² | - |
| 1777944003 | 15.56° C | 68% | 1014.4 hPa | 0 mm | - | 81 W/m² | - |
| 1777943703 | 15.56° C | 67% | 1014.4 hPa | 0 mm | - | 93 W/m² | - |
| 1777943103 | 15.56° C | 66% | 1014.4 hPa | 0 mm | - | 236 W/m² | - |
* Rain latest hour (hover to see other rain measurements)
** Current wind speed in m/s (hover to see current wind gust speed)